Location: Plainartige
(45.6866°N, 1.7993°E)
Time: 10:43:51
(UTC+00:00)

Tiros 1 - Pass Details

Date: 28 May 2022
Orbit: 629 x 663 km, 48.4° (Epoch: 04 July)

Event Time Altitude Azimuth Distance (km) Brightness Sun altitude
Exits shadow 01:44:08 17° 266° (W) 1,581 8.8 -18.1°
Maximum altitude 01:47:37 71° 348° (NNW) 674 7.3 -17.8°
Drops below altitude 10° 01:52:17 10° 73° (ENE) 2,030 10.4 -17.4°
Sets 01:54:38 0° 76° (ENE) 2,946 11.2 -17.2°
